Weather reports worldwide

Advertisment
Javea, Spain (8370): temperature & dewpoint: 04.07.2020 05:00:00 - 10.07.2020 05:00:00 (CEST)Javea, Spain (8370): wind speed & gusts: 04.07.2020 05:00:00 - 10.07.2020 05:00:00 (CEST)Javea, Spain (8370): wind direction: 04.07.2020 05:00:00 - 10.07.2020 05:00:00 (CEST)Javea, Spain (8370): reduced air pressure: 04.07.2020 05:00:00 - 10.07.2020 05:00:00 (CEST)Javea, Spain (8370): visibility: 04.07.2020 05:00:00 - 10.07.2020 05:00:00 (CEST)Javea, Spain (8370): sunshine duration: 04.07.2020 05:00:00 - 10.07.2020 05:00:00 (CEST)Javea, Spain (8370): precipitation: 04.07.2020 05:00:00 - 10.07.2020 05:00:00 (CEST)
Date & Time tt [°C] td [°C] ff [km/h] ff [kn] fx [km/h] fx [kn] dd ppp [hPa] vv [km] sd [min] rr [mm]
10.07.2020 05:00:00 - - - - - - - - - - -
10.07.2020 04:00:00 24,2 20,5 11 6 19 10 NNW 1015,1 20 0 0,0
10.07.2020 03:00:00 24,5 20,8 9 5 24 13 N 1015,0 20 0 0,0
10.07.2020 02:00:00 24,4 19,7 4 2 21 11 N 1015,8 20 0 -
10.07.2020 01:00:00 24,9 20,6 12 6 30 16 NNW 1016,5 20 0 0,0
10.07.2020 00:00:00 25,2 21,1 8 5 33 18 NNW 1016,1 20 0 0,0
09.07.2020 23:00:00 25,4 20,7 18 10 33 18 N 1015,3 20 0 0,0
09.07.2020 22:00:00 26,1 20,0 11 6 23 13 N 1015,5 20 0 0,0
09.07.2020 21:00:00 27,1 18,4 6 4 19 10 NNE 1014,4 20 25 0,0
09.07.2020 20:00:00 27,6 18,8 9 5 20 11 NE 1014,3 20 21 -
09.07.2020 19:00:00 28,2 17,7 13 7 23 13 NNE 1014,7 20 45 0,0
09.07.2020 18:00:00 29,6 18,1 6 4 20 11 ENE 1016,4 18 46 0,0
09.07.2020 17:00:00 30,0 18,5 10 6 28 15 NE 1016,0 17 51 0,0
09.07.2020 16:00:00 29,7 19,4 10 5 27 15 E 1016,9 18 48 0,0
09.07.2020 15:00:00 30,0 20,3 13 7 28 15 ENE 1016,3 20 59 0,0
09.07.2020 14:00:00 29,6 19,9 13 7 36 19 ENE 1016,9 20 60 -
09.07.2020 13:00:00 29,2 19,8 16 8 29 16 NE 1017,3 20 60 0,0
09.07.2020 12:00:00 28,8 19,1 19 10 31 17 NE 1017,0 20 60 0,0
09.07.2020 11:00:00 28,6 20,3 18 10 32 17 NNE 1017,1 20 59 0,0
09.07.2020 10:00:00 27,9 19,9 14 8 29 16 N 1017,1 20 56 0,0
09.07.2020 09:00:00 26,2 17,0 14 8 26 14 NW 1016,2 20 26 0,0
09.07.2020 08:00:00 24,6 15,5 8 5 29 15 WNW 1014,6 20 0 -
09.07.2020 07:00:00 24,6 18,3 5 3 19 11 ESE 1014,5 20 0 0,0
09.07.2020 06:00:00 24,1 16,6 5 3 16 9 SE 1015,9 20 0 0,0
09.07.2020 05:00:00 23,4 16,9 9 5 18 10 SW 1017,9 20 0 0,0
09.07.2020 04:00:00 23,5 17,9 6 4 18 10 WSW 1015,6 20 0 0,0
09.07.2020 03:00:00 23,8 17,1 7 4 14 8 NNE 1015,3 20 0 0,0
09.07.2020 02:00:00 22,7 18,7 8 4 14 8 WSW 1017,9 20 0 -
09.07.2020 01:00:00 23,4 19,1 2 1 10 5 WSW 1017,0 20 0 0,0
09.07.2020 00:00:00 24,3 18,9 5 3 15 8 WSW 1017,3 20 0 0,0
08.07.2020 23:00:00 25,0 18,7 4 2 17 9 E 1017,2 20 0 0,0
08.07.2020 22:00:00 25,5 20,7 7 4 18 10 E 1016,7 20 0 0,0
08.07.2020 21:00:00 26,2 20,5 6 3 19 11 E 1016,5 20 0 0,0
08.07.2020 20:00:00 28,0 19,8 5 3 18 10 S 1016,9 20 37 -
08.07.2020 19:00:00 28,9 19,8 9 5 23 12 SSE 1016,7 20 60 0,0
08.07.2020 18:00:00 30,7 18,8 9 5 27 15 SSE 1017,0 20 60 0,0
08.07.2020 17:00:00 29,1 19,7 15 8 30 16 E 1016,6 16 60 0,0
08.07.2020 16:00:00 29,5 18,0 15 8 29 15 E 1017,1 13 60 0,0
08.07.2020 15:00:00 29,4 17,2 13 7 24 13 E 1017,8 20 60 0,0
08.07.2020 14:00:00 29,1 17,3 12 7 23 12 ENE 1018,3 20 60 -
08.07.2020 13:00:00 29,1 19,7 10 5 19 10 E 1018,0 20 60 0,0
08.07.2020 12:00:00 28,3 20,3 11 6 19 11 E 1017,8 20 60 0,0
08.07.2020 11:00:00 28,1 20,9 9 5 18 10 E 1018,1 20 60 0,0
08.07.2020 10:00:00 26,8 20,9 7 4 11 6 E 1017,6 19 60 0,0
08.07.2020 09:00:00 24,0 19,9 5 3 10 5 WSW 1017,0 20 46 0,0
08.07.2020 08:00:00 21,0 19,1 8 4 9 5 WSW 1016,7 18 0 -
08.07.2020 07:00:00 20,6 18,7 7 4 9 5 WSW 1016,5 20 0 0,0
08.07.2020 06:00:00 21,4 19,5 7 4 10 5 WSW 1016,4 20 0 0,0
08.07.2020 05:00:00 21,6 19,7 6 4 8 5 WSW 1016,4 20 0 0,0
08.07.2020 04:00:00 21,7 19,4 5 3 9 5 WSW 1016,3 20 0 0,0
08.07.2020 03:00:00 22,4 20,1 5 3 10 6 WSW 1016,5 20 0 0,0
08.07.2020 02:00:00 23,0 20,0 1 1 5 3 WSW 1016,7 20 0 -
08.07.2020 01:00:00 23,4 19,6 2 1 5 3 W 1016,6 20 0 0,0
08.07.2020 00:00:00 24,1 19,4 4 2 7 4 WSW 1016,5 20 0 0,0
07.07.2020 23:00:00 24,9 19,3 4 2 10 5 S 1016,0 20 0 0,0
07.07.2020 22:00:00 26,0 19,1 6 3 18 10 S 1015,3 20 24 0,0
07.07.2020 21:00:00 28,3 18,7 8 5 22 12 S 1014,8 20 60 0,0
07.07.2020 20:00:00 30,3 15,6 11 6 27 14 S 1014,2 20 60 -
07.07.2020 19:00:00 31,5 12,3 14 8 29 16 SSW 1014,1 20 60 0,0
07.07.2020 18:00:00 31,9 13,7 15 8 32 18 S 1014,6 20 60 0,0
07.07.2020 17:00:00 32,1 15,2 18 10 31 17 S 1014,9 20 60 0,0
07.07.2020 16:00:00 32,3 16,6 16 9 29 16 S 1015,2 20 60 0,0
07.07.2020 15:00:00 32,3 16,1 14 8 27 15 SSE 1015,5 20 60 0,0
07.07.2020 14:00:00 32,5 15,5 13 7 24 13 S 1015,9 20 60 -
07.07.2020 13:00:00 30,0 15,7 11 6 21 11 NE 1016,0 15 60 0,0
07.07.2020 12:00:00 31,0 17,0 8 4 18 10 E 1016,0 20 60 0,0
07.07.2020 11:00:00 30,2 18,3 8 4 14 8 E 1015,8 20 36 0,0
07.07.2020 10:00:00 27,8 15,8 7 4 12 6 WSW 1016,0 20 48 0,0
07.07.2020 09:00:00 25,0 14,4 5 3 12 7 W 1015,5 20 60 0,0
07.07.2020 08:00:00 22,0 15,3 6 3 10 5 W 1015,2 20 16 -
07.07.2020 07:00:00 20,8 15,3 4 2 13 7 W 1015,0 20 0 0,0
07.07.2020 06:00:00 21,5 16,2 5 3 9 5 W 1015,0 20 0 0,0
07.07.2020 05:00:00 22,5 17,2 1 1 9 5 SE 1015,0 20 0 0,0
07.07.2020 04:00:00 23,3 17,8 6 3 13 7 W 1015,3 20 0 0,0
07.07.2020 03:00:00 23,7 17,7 6 3 11 6 W 1015,6 20 0 0,0
07.07.2020 02:00:00 24,4 17,4 7 4 23 12 WSW 1015,9 20 0 -
07.07.2020 01:00:00 24,9 16,6 13 7 24 13 SW 1015,9 20 0 0,0
07.07.2020 00:00:00 25,1 16,2 10 5 22 12 SW 1015,8 20 0 0,0
06.07.2020 23:00:00 25,2 16,3 11 6 28 15 SW 1015,5 20 0 0,0
06.07.2020 22:00:00 25,7 16,8 11 6 24 13 SW 1015,0 20 27 0,0
06.07.2020 21:00:00 27,4 16,6 12 6 27 15 SW 1014,9 20 60 0,0
06.07.2020 20:00:00 28,6 16,5 14 7 36 19 SSW 1014,9 20 60 -
06.07.2020 19:00:00 31,0 15,0 10 6 31 17 SSW 1015,2 20 60 0,0
06.07.2020 18:00:00 31,5 13,3 16 9 30 16 SSW 1015,5 20 60 0,0
06.07.2020 17:00:00 32,3 12,5 14 8 32 17 SSW 1016,0 20 60 0,0
06.07.2020 16:00:00 32,1 13,4 14 8 31 17 SSW 1016,4 20 60 0,0
06.07.2020 15:00:00 33,0 11,0 15 8 25 14 S 1016,7 20 60 0,0
06.07.2020 14:00:00 32,0 14,1 11 6 26 14 SSW 1016,9 20 60 -
06.07.2020 13:00:00 31,2 17,9 12 7 20 11 SW 1017,0 20 60 0,0
06.07.2020 12:00:00 31,0 18,0 7 4 15 8 SSW 1017,0 20 60 0,0
06.07.2020 11:00:00 30,0 16,8 4 2 12 6 SE 1017,0 20 35 0,0
06.07.2020 10:00:00 26,5 19,3 5 3 11 6 SW 1017,0 20 49 0,0
06.07.2020 09:00:00 23,0 17,0 4 2 9 5 WSW 1016,9 20 60 0,0
06.07.2020 08:00:00 19,6 15,6 7 4 9 5 WSW 1016,8 20 17 -
06.07.2020 07:00:00 18,7 15,2 4 2 9 5 SSW 1016,7 20 0 0,0
06.07.2020 06:00:00 19,3 15,2 8 4 10 6 WSW 1016,6 20 0 0,0
06.07.2020 05:00:00 19,3 15,5 8 4 9 5 WSW 1017,1 20 0 0,0
06.07.2020 04:00:00 19,6 16,2 6 3 8 5 W 1017,6 20 0 0,0
06.07.2020 03:00:00 20,9 16,5 3 1 8 5 W 1018,1 20 0 0,0
06.07.2020 02:00:00 22,9 18,0 5 3 15 8 WSW 1018,0 20 0 -
06.07.2020 01:00:00 23,3 18,6 9 5 17 9 SW 1018,1 20 0 0,0
06.07.2020 00:00:00 23,5 19,1 8 4 22 12 SW 1018,0 20 0 0,0
05.07.2020 23:00:00 23,9 18,5 7 4 16 9 W 1017,9 20 0 0,0
05.07.2020 22:00:00 24,6 18,1 8 4 23 12 SW 1017,9 20 27 0,0
05.07.2020 21:00:00 26,4 17,5 13 7 27 14 SSW 1017,9 20 60 0,0
05.07.2020 20:00:00 27,8 17,1 14 8 32 17 SSW 1017,9 20 60 -
05.07.2020 19:00:00 29,0 16,6 16 9 31 17 S 1018,2 20 60 0,0
05.07.2020 18:00:00 30,0 16,0 14 8 30 16 S 1019,1 20 60 0,0
05.07.2020 17:00:00 30,2 16,6 16 9 29 16 S 1019,6 20 60 0,0
05.07.2020 16:00:00 30,7 16,0 16 8 29 16 S 1020,1 20 60 0,0
05.07.2020 15:00:00 30,2 16,2 15 8 29 16 S 1020,7 20 60 0,0
05.07.2020 14:00:00 31,1 15,1 14 8 29 16 SSE 1021,2 20 60 -
05.07.2020 13:00:00 30,9 16,1 12 6 25 14 SSE 1021,2 20 60 0,0
05.07.2020 12:00:00 29,8 15,9 10 5 24 13 S 1021,2 20 60 0,0
05.07.2020 11:00:00 28,9 16,1 10 5 19 10 SSE 1021,3 20 35 0,0
05.07.2020 10:00:00 27,2 19,1 4 2 11 6 ESE 1021,3 20 49 0,0
05.07.2020 09:00:00 23,1 18,6 4 2 10 5 WSW 1021,4 20 60 0,0
05.07.2020 08:00:00 19,1 17,1 6 4 9 5 WSW 1021,3 20 17 -
05.07.2020 07:00:00 18,7 16,6 8 5 11 6 WSW 1021,1 20 0 0,0
05.07.2020 06:00:00 19,0 16,8 8 5 11 6 SW 1020,8 20 0 0,0
05.07.2020 05:00:00 19,8 17,4 9 5 11 6 WSW 1021,0 20 0 0,0
05.07.2020 04:00:00 20,3 17,9 8 4 11 6 WSW 1021,4 20 0 0,0
05.07.2020 03:00:00 21,1 18,5 4 2 10 5 SW 1021,7 20 0 0,0
05.07.2020 02:00:00 21,6 18,8 6 3 10 6 WSW 1021,9 20 0 -
05.07.2020 01:00:00 22,3 18,9 4 2 9 5 W 1022,0 20 0 0,0
05.07.2020 00:00:00 23,0 19,1 3 2 13 7 W 1022,1 20 0 0,0
04.07.2020 23:00:00 23,5 18,8 7 4 14 8 SSW 1021,4 20 0 0,0
04.07.2020 22:00:00 24,3 18,0 8 4 24 13 S 1020,8 20 26 0,0
04.07.2020 21:00:00 26,4 16,6 10 6 24 13 S 1020,3 20 60 0,0
04.07.2020 20:00:00 28,1 16,0 9 5 29 16 SSW 1019,8 20 60 -
04.07.2020 19:00:00 28,4 16,6 15 8 34 18 SSW 1019,9 20 60 0,0
04.07.2020 18:00:00 28,3 18,4 19 11 35 19 S 1020,3 20 60 0,0
04.07.2020 17:00:00 28,5 18,8 14 8 29 16 S 1020,8 20 42 0,0
04.07.2020 16:00:00 28,5 18,6 18 10 31 17 S 1021,1 20 22 0,0
04.07.2020 15:00:00 29,2 18,6 14 8 37 20 S 1021,6 20 19 0,0
04.07.2020 14:00:00 29,7 18,8 15 8 29 15 S 1022,2 20 59 -
04.07.2020 13:00:00 28,5 19,4 11 6 25 14 S 1022,3 20 57 0,0
04.07.2020 12:00:00 27,8 19,3 12 6 22 12 S 1022,1 20 42 0,0
04.07.2020 11:00:00 26,4 20,0 7 4 14 7 S 1021,7 20 12 0,0
04.07.2020 10:00:00 25,2 20,3 7 4 15 8 SW 1021,4 20 17 0,0
04.07.2020 09:00:00 24,7 21,0 6 3 10 5 WSW 1021,1 18 52 0,0
04.07.2020 08:00:00 21,8 20,3 4 2 8 4 W 1021,0 14 0 -
04.07.2020 07:00:00 21,6 19,9 4 2 7 4 WSW 1020,7 13 0 0,0
04.07.2020 06:00:00 22,1 20,1 4 2 6 4 W 1020,6 16 0 0,0
04.07.2020 05:00:00 22,4 20,1 3 2 8 5 WSW 1020,8 15 0 0,0

tt = temperature
td = dewpoint
ff = wind speed
fx = gusts
dd = wind direction
ppp = reduced air pressure
vv = visibility
sd = sunshine duration
rr = precipitation

Next stations